Regional Weather Roundup
Issued by NWS

Home | Current Version | Previous Version | Graphics & Text | Print | Product List | Glossary Off
Versions: 1 2 3 4 5 6 7 8 9 10 11 12 13 14 15 16 17 18 19 20 21 22 23 24 25 26 27 28 29 30 31 32 33 34 35 36 37 38 39 40 41 42 43 44 45 46 47 48 49 50

000
ASUS43 KLSX 020110
RWRMO

WEATHER SUMMARY FOR MISSOURI
NATIONAL WEATHER SERVICE SPRINGFIELD MO
800 PM CDT TUE SEP 01 2015

NOTE: "FAIR" INDICATES FEW OR NO CLOUDS BELOW 12,000 FEET WITH NO
       SIGNIFICANT WEATHER AND/OR OBSTRUCTIONS TO VISIBILITY.
       CURRENT SKY AND/OR WEATHER CONDITIONS ARE NOT AVAILABLE FOR
       CHILLICOTHE AND FARMINGTON.

MOZ001>031-035>038-043-044-053-054-020200-
...NORTHERN AND WESTERN MISSOURI...

CITY           SKY/WX    TMP DP  RH WIND       PRES   REMARKS
KANSAS CTY INT PTCLDY    77  67  71 S7        30.00R
KANSAS C DTWN  CLEAR     84  66  54 S8        29.98S
LEE`S SUMMIT   CLEAR     82  65  56 S7        30.01R
ST JOSEPH      CLEAR     80  68  66 S9        29.96S
CHILLICOTHE      N/A     82  69  64 CALM      30.00R
KIRKSVILLE     CLEAR     80  70  71 S3        30.02R

$$
MOZ066>068-077>081-088>096-101>105-020200-
...SOUTHWEST MISSOURI...

CITY           SKY/WX    TMP DP  RH WIND       PRES   REMARKS
SPRINGFIELD    CLEAR     78  67  68 S5        30.05S
JOPLIN         CLEAR     77  65  66 S7        30.04R

$$
MOZ032>034-039>042-045>050-055>058-069>072-020200-
...CENTRAL MISSOURI...

CITY           SKY/WX    TMP DP  RH WIND       PRES   REMARKS
COLUMBIA       PTCLDY    77  70  79 SE5       30.04S
JEFFERSON CITY PTCLDY    81  70  69 E3        30.02S
ROLLA          PTCLDY    78  69  73 SE3       30.06S
SEDALIA        CLEAR     80  69  69 S3        30.03R
WHITEMAN AFB   PTCLDY    79  67  66 SW7       30.01R
WARRENSBURG    CLEAR     79  66  65 CALM      30.01R
OSAGE BEACH    CLEAR     81  66  61 SE3       30.05S

$$
MOZ051-052-059>065-020200-
...EAST CENTRAL MISSOURI...

CITY           SKY/WX    TMP DP  RH WIND       PRES   REMARKS
ST LOUIS INTL  PTCLDY    87  68  52 S7        30.05S HX  90
SPIRIT OF STL  CLEAR     80  73  79 S3        30.03S
ST CHARLES     CLEAR     80  71  74 S5        30.03R

$$
MOZ072>076-082>087-097>100-106>115-020200-
...SOUTH CENTRAL AND SOUTHEAST MISSOURI...

CITY           SKY/WX    TMP DP  RH WIND       PRES   REMARKS
CAPE GIRARDEAU PTCLDY    78  70  76 S6        30.07R
FARMINGTON     CLEAR     79  72  78 SE3       30.11R
POPLAR BLUFF   PTCLDY    76  72  87 CALM      30.06R
WEST PLAINS    CLEAR     78  71  79 CALM      30.10S

$$


USA.gov is the U.S. government's official web portal to all federal, state and local government web resources and services.